SL-14 DEB, 45276

Orbit data source: Space-Track

SL-14 DEB, 45276 is space debris in LEO originally from a launch on Thu, 15 Aug 1991 UTC launched from the Plesetsk Missile And Space Complex (PKMTR). Debris objects in space refer to the collection of defunct objects orbiting the Earth. Examples of debris include non-operational satellites, rocket bodies, and fragments generated from explosions, collisions, or faulty payload assembly.

Loading next visibility...
Identifier
45276, 1991-056N
Orbit
LEO
Country
Flag of CISCIS
Related business
Manufacturer
Unknown
Mission
Spacecraft
Bus & Motor
Unknown
Mass
Unknown
Launch date (UTC)
1991-08-15 (34 years ago)
Launch vehicle
Unknown
Launch site
Plesetsk Missile And Space Complex (PKMTR)
Object type
Payload
Rocket body
Debris
Shape & HBR
Unknown shape, 0.1 m
Radar Cross Section
Small (<0.1 m²)

Expand to show TLE details & history
Last TLE update: 10 hours ago

TLE from 10 hours ago
0 SL-14 DEB
1 45276U 91056N   26035.52413620  .00000539  00000-0  11419-2 0  9999
2 45276  82.5856 211.8883 0048747 290.2354  69.3537 13.28717382289493
Epoch: 2026-02-04T12:34Z
TLE epoch observation values (Epoch: 2026-02-04T12:34:45.367Z)
Latitude
-0.00009°
Longitude
-111.49022°
Altitude
1,141.642 km
Speed
7.288 km/s
True Right ascension
14h 07m 33s
True Declination
0° 00' 00"
Sunlit
Object was in daylight at epoch
Visualization orbit readout
Latitude
Unknown
Longitude
Unknown
Altitude
Unknown
Speed
Unknown
Apparent Right ascension
Unknown
Apparent Declination
Unknown
Sunlit
N/A
Visualization observer readout
Local Sidereal Time
00:45:42
Azimuth
Unknown
Elevation
Unknown
Doppler factor
Unknown
Orbital elements
Apogee altitude
1,185.524 km
Perigee altitude
1,112.14 km
Semi-major axis
7,526.969 km
Eccentricity
0.00487
Inclination
82.5856°
RAAN
211.8883°
Arg. of periapsis
290.2354°
True anomaly
69.87754°
Mean anomaly
69.3537°
Eccentric anomaly
69.61551°
Mean motion
3.32363 °/min
Orbital period
108.32 mins
BSTAR
0.0011419
Loading maneuver chart data...
Computing Atmospheric mass density...
Loading historical data...
Loading historical data...
Loading historical data...
Loading historical data...
Loading historical data...
Loading historical data...
Loading historical data...

Documentation

Showing up to 5 results
|